SXM-10

Last updated on Mon Oct 20 2025 00:02:51 GMT+0000 (Coordinated Universal Time)

1 64290U 25122A 25292.14246464 .00000000 00000+0 00000+0 0 9992 2 64290 0.0041 329.2998 0002498 28.4411 325.2406 1.00269907 1268
UTC large
Height (km)
Speed (km/s)
/
Latitude / Longitude
Inclination (degrees)
Orbital Period (minutes)
Azimuth
Elevation
Range (km)
Doppler Factor

Next 0 passes for location: London (51.5072 / 0.1276)

Sorry there are no passes over London.